User: anonymous   Login
Location: Montr�al
(45.5000°N, 73.5830°W)
Time: 12:22:05
(UTC-05:00)
Language:

Cosmos 2369 - Orbit

View from above orbital plane
View from above orbital plane
View from above satellite
View from above satellite

Ground track
Ground track

The orbit data is extracted from the following two-line orbital elements,

1 26069U 00006A   14354.25202558 -.00000211  00000-0 -86943-4 0  4248
2 26069 070.9973 105.1578 0010336 186.9180 183.9386 14.13270875767560
Epoch (UTC): 20 December 2014 06:02:55
Eccentricity: 0.0010336
inclination: 70.9973°
perigee height: 841 km
apogee height: 855 km
right ascension of ascending node: 105.1578°
argument of perigee: 186.9180°
revolutions per day: 14.13270875
mean anomaly at epoch: 183.9386°
orbit number at epoch: 76756

The dashed part of the orbit path shows where the satellite is in the earth's shadow,  

DLR